| time (UTC) | temp C | wind direction | speed KPH | gust KPH | rain 1hr cm | rain 24hr cm | rain mn cm | humidity % | barometer mb |
| 20260504214719 | 17 | 23 | 1.6 | 1.6 | 0.00 | 0.00 | 0.00 | 80 | 1027.2 |
| 20260504214215 | 17 | 18 | 1.6 | 1.6 | 0.00 | 0.00 | 0.00 | 80 | 1027.3 |
| 20260504213712 | 17 | 12 | 1.6 | 1.6 | 0.00 | 0.00 | 0.00 | 81 | 1027.4 |
| 20260504213209 | 17 | 18 | 1.6 | 1.6 | 0.00 | 0.00 | 0.00 | 81 | 1027.5 |
| 20260504212706 | 17 | 15 | 1.6 | 1.6 | 0.00 | 0.00 | 0.00 | 82 | 1027.4 |
| 20260504212203 | 17 | 10 | 1.6 | 1.6 | 0.00 | 0.00 | 0.00 | 81 | 1027.8 |
| 20260504211700 | 17 | 29 | 3.2 | 3.2 | 0.00 | 0.00 | 0.00 | 81 | 1027.4 |
| 20260504211155 | 17 | 21 | 4.8 | 4.8 | 0.00 | 0.00 | 0.00 | 80 | 1027.7 |
| 20260504210654 | 17 | 1 | 4.8 | 4.8 | 0.00 | 0.00 | 0.00 | 80 | 1027.4 |
| 20260504210150 | 17 | 14 | 6.4 | 8.0 | 0.00 | 0.00 | 0.00 | 80 | 1027.8 |
| 20260504205647 | 17 | 9 | 4.8 | 4.8 | 0.00 | 0.00 | 0.00 | 80 | 1027.8 |
| 20260504205144 | 17 | 15 | 3.2 | 3.2 | 0.00 | 0.00 | 0.00 | 80 | 1027.8 |
| 20260504204643 | 17 | 21 | 4.8 | 4.8 | 0.00 | 0.00 | 0.00 | 80 | 1027.9 |
| 20260504204142 | 17 | 6 | 4.8 | 4.8 | 0.00 | 0.00 | 0.00 | 80 | 1028.0 |
| 20260504203640 | 17 | 8 | 6.4 | 8.0 | 0.00 | 0.00 | 0.00 | 80 | 1028.1 |
| 20260504203137 | 17 | 355 | 4.8 | 8.0 | 0.00 | 0.00 | 0.00 | 81 | 1028.0 |
| 20260504202637 | 17 | 5 | 4.8 | 4.8 | 0.00 | 0.00 | 0.00 | 81 | 1028.1 |
| 20260504202134 | 17 | 11 | 4.8 | 4.8 | 0.00 | 0.00 | 0.00 | 81 | 1028.1 |
| 20260504201631 | 17 | 356 | 4.8 | 4.8 | 0.00 | 0.00 | 0.00 | 82 | 1028.2 |
| 20260504201129 | 17 | 0 | 4.8 | 8.0 | 0.00 | 0.00 | 0.00 | 82 | 1028.1 |
| 20260504200626 | 17 | 343 | 4.8 | 4.8 | 0.00 | 0.00 | 0.00 | 82 | 1028.3 |
| 20260504200122 | 17 | 354 | 4.8 | 8.0 | 0.00 | 0.00 | 0.00 | 82 | 1028.3 |
| 20260504195618 | 17 | 351 | 4.8 | 4.8 | 0.00 | 0.00 | 0.00 | 81 | 1028.1 |
| 20260504195115 | 18 | 6 | 4.8 | 4.8 | 0.00 | 0.00 | 0.00 | 81 | 1028.5 |
| 20260504194612 | 18 | 351 | 6.4 | 8.0 | 0.00 | 0.00 | 0.00 | 81 | 1028.5 |
| 20260504194107 | 18 | 356 | 3.2 | 3.2 | 0.00 | 0.00 | 0.00 | 81 | 1028.6 |
| 20260504193604 | 18 | 9 | 4.8 | 4.8 | 0.00 | 0.00 | 0.00 | 80 | 1028.3 |
| 20260504193103 | 18 | 8 | 3.2 | 4.8 | 0.00 | 0.00 | 0.00 | 80 | 1028.3 |
| 20260504192600 | 18 | 323 | 3.2 | 8.0 | 0.00 | 0.00 | 0.00 | 81 | 1028.2 |
| 20260504192058 | 18 | 341 | 4.8 | 4.8 | 0.00 | 0.00 | 0.00 | 81 | 1028.1 |
| 20260504191556 | 18 | 338 | 3.2 | 3.2 | 0.00 | 0.00 | 0.00 | 81 | 1028.2 |
| 20260504191052 | 18 | 312 | 4.8 | 4.8 | 0.00 | 0.00 | 0.00 | 80 | 1028.2 |
| 20260504190548 | 18 | 332 | 3.2 | 3.2 | 0.00 | 0.00 | 0.00 | 80 | 1028.3 |
| 20260504190044 | 18 | 338 | 3.2 | 3.2 | 0.00 | 0.00 | 0.00 | 80 | 1028.0 |
| 20260504185542 | 18 | 345 | 3.2 | 3.2 | 0.00 | 0.00 | 0.00 | 80 | 1028.0 |
| 20260504185038 | 18 | 353 | 3.2 | 4.8 | 0.00 | 0.00 | 0.00 | 80 | 1028.1 |
| 20260504184534 | 18 | 357 | 1.6 | 3.2 | 0.00 | 0.00 | 0.00 | 81 | 1028.1 |
| 20260504184029 | 18 | 10 | 3.2 | 3.2 | 0.00 | 0.00 | 0.00 | 81 | 1028.1 |
| 20260504183526 | 18 | 6 | 1.6 | 1.6 | 0.00 | 0.00 | 0.00 | 80 | 1027.9 |
| 20260504183025 | 18 | 3 | 4.8 | 4.8 | 0.00 | 0.00 | 0.00 | 80 | 1028.0 |
| 20260504182521 | 18 | 338 | 1.6 | 3.2 | 0.00 | 0.00 | 0.00 | 80 | 1028.1 |
| 20260504182018 | 18 | 335 | 1.6 | 1.6 | 0.00 | 0.00 | 0.00 | 80 | 1028.5 |
| 20260504181515 | 18 | 341 | 4.8 | 4.8 | 0.00 | 0.00 | 0.00 | 79 | 1028.5 |
| 20260504181014 | 18 | 345 | 3.2 | 3.2 | 0.00 | 0.00 | 0.00 | 79 | 1028.1 |
| 20260504180512 | 18 | 352 | 1.6 | 1.6 | 0.00 | 0.00 | 0.00 | 79 | 1028.3 |
| 20260504180011 | 18 | 333 | 1.6 | 3.2 | 0.00 | 0.00 | 0.00 | 79 | 1028.2 |
| 20260504175508 | 19 | 351 | 3.2 | 3.2 | 0.00 | 0.00 | 0.00 | 78 | 1028.1 |
| 20260504175005 | 19 | 323 | 3.2 | 3.2 | 0.00 | 0.00 | 0.00 | 78 | 1028.0 |
| 20260504174503 | 19 | 320 | 3.2 | 3.2 | 0.00 | 0.00 | 0.00 | 78 | 1028.1 |
| 20260504173959 | 19 | 336 | 1.6 | 3.2 | 0.00 | 0.00 | 0.00 | 77 | 1028.3 |
| 20260504173456 | 20 | 348 | 1.6 | 1.6 | 0.00 | 0.00 | 0.00 | 77 | 1028.5 |
| 20260504172953 | 20 | 348 | 3.2 | 3.2 | 0.00 | 0.00 | 0.00 | 76 | 1028.0 |
| 20260504172449 | 20 | 355 | 8.0 | 11.3 | 0.00 | 0.00 | 0.00 | 76 | 1027.9 |
| 20260504171946 | 19 | 337 | 4.8 | 8.0 | 0.00 | 0.00 | 0.00 | 77 | 1028.1 |
| 20260504171443 | 19 | 340 | 3.2 | 3.2 | 0.00 | 0.00 | 0.00 | 78 | 1027.9 |
| 20260504170940 | 19 | 354 | 3.2 | 3.2 | 0.00 | 0.00 | 0.00 | 77 | 1028.0 |
| 20260504170436 | 19 | 339 | 3.2 | 3.2 | 0.00 | 0.00 | 0.00 | 77 | 1028.1 |
| 20260504160355 | 20 | 337 | 0.0 | 1.6 | 0.00 | 0.00 | 0.00 | 76 | 1028.2 |
| 20260504150820 | 21 | 343 | 1.6 | 1.6 | 0.00 | 0.00 | 0.00 | 72 | 1028.1 |
| 20260504150316 | 21 | 339 | 1.6 | 1.6 | 0.00 | 0.00 | 0.00 | 72 | 1028.1 |
| 20260504141247 | 23 | 262 | 3.2 | 4.8 | 0.00 | 0.00 | 0.00 | 66 | 1028.5 |
| 20260504140743 | 23 | 20 | 6.4 | 9.7 | 0.00 | 0.00 | 0.00 | 65 | 1028.1 |
| 20260504140239 | 23 | 322 | 8.0 | 9.7 | 0.00 | 0.00 | 0.00 | 65 | 1028.5 |
| 20260504130708 | 24 | 306 | 6.4 | 8.0 | 0.00 | 0.00 | 0.00 | 64 | 1028.1 |
| 20260504130203 | 24 | 351 | 12.9 | 14.5 | 0.00 | 0.00 | 0.00 | 64 | 1028.6 |
| 20260504120127 | 23 | 355 | 6.4 | 11.3 | 0.00 | 0.00 | 0.00 | 66 | 1028.8 |
| 20260504110555 | 22 | 12 | 9.7 | 12.9 | 0.00 | 0.00 | 0.00 | 69 | 1030.0 |
| 20260504100517 | 22 | 331 | 9.7 | 12.9 | 0.00 | 0.00 | 0.00 | 71 | 1031.1 |
| 20260504081910 | 20 | 12 | 4.8 | 4.8 | 0.00 | 0.00 | 0.00 | 74 | 1032.4 |
| 20260504081407 | 21 | 16 | 8.0 | 9.7 | 0.00 | 0.00 | 0.00 | 73 | 1032.5 |
| 20260504080903 | 20 | 342 | 4.8 | 4.8 | 0.00 | 0.00 | 0.00 | 75 | 1032.6 |
| 20260504080400 | 20 | 332 | 4.8 | 4.8 | 0.00 | 0.00 | 0.00 | 75 | 1032.6 |
| 20260504070327 | 20 | 84 | 3.2 | 3.2 | 0.00 | 0.00 | 0.00 | 74 | 1033.1 |
| 20260504060247 | 15 | 106 | 1.6 | 1.6 | 0.00 | 0.00 | 0.00 | 85 | 1032.6 |
| 20260504050715 | 12 | 112 | 1.6 | 1.6 | 0.00 | 0.00 | 0.00 | 94 | 1032.4 |
| 20260504050212 | 12 | 103 | 3.2 | 3.2 | 0.00 | 0.00 | 0.00 | 95 | 1032.4 |
| 20260504045709 | 12 | 135 | 4.8 | 4.8 | 0.00 | 0.00 | 0.00 | 95 | 1032.2 |
| 20260504045204 | 11 | 118 | 3.2 | 3.2 | 0.00 | 0.00 | 0.00 | 95 | 1032.2 |
| 20260504044702 | 11 | 114 | 3.2 | 3.2 | 0.00 | 0.00 | 0.00 | 95 | 1032.3 |
| 20260504044159 | 11 | 97 | 1.6 | 1.6 | 0.00 | 0.00 | 0.00 | 95 | 1032.3 |
| 20260504043655 | 11 | 95 | 0.0 | 1.6 | 0.00 | 0.00 | 0.00 | 95 | 1032.0 |
| 20260504043152 | 11 | 97 | 0.0 | 1.6 | 0.00 | 0.00 | 0.00 | 95 | 1031.9 |
| 20260504042650 | 11 | 127 | 1.6 | 3.2 | 0.00 | 0.00 | 0.00 | 95 | 1032.0 |
| 20260504042146 | 11 | 135 | 3.2 | 3.2 | 0.00 | 0.00 | 0.00 | 94 | 1032.2 |
| 20260504041642 | 12 | 123 | 3.2 | 3.2 | 0.00 | 0.00 | 0.00 | 94 | 1031.9 |
| 20260504041138 | 12 | 102 | 1.6 | 1.6 | 0.00 | 0.00 | 0.00 | 94 | 1032.0 |
| 20260504040636 | 12 | 105 | 1.6 | 3.2 | 0.00 | 0.00 | 0.00 | 94 | 1031.9 |
| 20260504040133 | 12 | 117 | 4.8 | 4.8 | 0.00 | 0.00 | 0.00 | 94 | 1031.9 |
| 20260504035629 | 12 | 122 | 4.8 | 4.8 | 0.00 | 0.00 | 0.00 | 94 | 1031.9 |
| 20260504035126 | 12 | 128 | 3.2 | 3.2 | 0.00 | 0.00 | 0.00 | 94 | 1031.9 |
| 20260504034624 | 12 | 103 | 1.6 | 3.2 | 0.00 | 0.00 | 0.00 | 93 | 1031.9 |
| 20260504034120 | 12 | 116 | 3.2 | 3.2 | 0.00 | 0.00 | 0.00 | 93 | 1031.9 |
| 20260504033618 | 12 | 130 | 3.2 | 3.2 | 0.00 | 0.00 | 0.00 | 92 | 1031.9 |
| 20260504033115 | 12 | 122 | 1.6 | 3.2 | 0.00 | 0.00 | 0.00 | 91 | 1031.9 |
| 20260504032612 | 12 | 100 | 0.0 | 1.6 | 0.00 | 0.00 | 0.00 | 90 | 1031.6 |
| 20260504032109 | 13 | 100 | 0.0 | 0.0 | 0.00 | 0.00 | 0.00 | 89 | 1031.6 |
| 20260504031606 | 13 | 101 | 0.0 | 0.0 | 0.00 | 0.00 | 0.00 | 87 | 1031.6 |
| 20260504031102 | 14 | 100 | 0.0 | 0.0 | 0.00 | 0.00 | 0.00 | 86 | 1031.9 |
| 20260504030559 | 15 | 105 | 0.0 | 0.0 | 0.00 | 0.00 | 0.00 | 84 | 1031.6 |
| 20260504030055 | 15 | 112 | 0.0 | 0.0 | 0.00 | 0.00 | 0.00 | 82 | 1031.6 |
| 20260504025553 | 16 | 117 | 0.0 | 0.0 | 0.00 | 0.00 | 0.00 | 80 | 1031.8 |
| 20260504025049 | 15 | 200 | 1.6 | 1.6 | 0.00 | 0.00 | 0.00 | 81 | 1031.6 |
| 20260504024547 | 15 | 161 | 1.6 | 1.6 | 0.00 | 0.00 | 0.00 | 82 | 1031.6 |
| 20260504024043 | 15 | 172 | 0.0 | 1.6 | 0.00 | 0.00 | 0.00 | 83 | 1031.5 |
| 20260504023540 | 15 | 135 | 0.0 | 1.6 | 0.00 | 0.00 | 0.00 | 82 | 1031.4 |
| 20260504023036 | 15 | 121 | 0.0 | 0.0 | 0.00 | 0.00 | 0.00 | 83 | 1031.6 |
| 20260504022532 | 15 | 150 | 0.0 | 1.6 | 0.00 | 0.00 | 0.00 | 83 | 1031.6 |
| 20260504022029 | 15 | 148 | 1.6 | 1.6 | 0.00 | 0.00 | 0.00 | 84 | 1031.4 |
| 20260504021526 | 15 | 121 | 1.6 | 1.6 | 0.00 | 0.00 | 0.00 | 84 | 1031.4 |
| 20260504021023 | 15 | 106 | 0.0 | 0.0 | 0.00 | 0.00 | 0.00 | 84 | 1031.6 |
| 20260504020520 | 15 | 110 | 0.0 | 0.0 | 0.00 | 0.00 | 0.00 | 83 | 1031.7 |
| 20260504020017 | 15 | 155 | 1.6 | 3.2 | 0.00 | 0.00 | 0.00 | 83 | 1031.4 |
| 20260504015513 | 15 | 145 | 3.2 | 3.2 | 0.00 | 0.00 | 0.00 | 83 | 1031.5 |
| 20260504015009 | 15 | 128 | 3.2 | 3.2 | 0.00 | 0.00 | 0.00 | 83 | 1031.5 |
| 20260504014505 | 15 | 125 | 3.2 | 3.2 | 0.00 | 0.00 | 0.00 | 83 | 1031.6 |
| 20260504014003 | 15 | 119 | 3.2 | 3.2 | 0.00 | 0.00 | 0.00 | 82 | 1031.5 |
| 20260504013501 | 15 | 123 | 3.2 | 3.2 | 0.00 | 0.00 | 0.00 | 82 | 1031.6 |
| 20260504012956 | 15 | 118 | 3.2 | 3.2 | 0.00 | 0.00 | 0.00 | 82 | 1031.7 |
| 20260504012454 | 15 | 120 | 1.6 | 3.2 | 0.00 | 0.00 | 0.00 | 83 | 1031.6 |
| 20260504011952 | 15 | 126 | 3.2 | 3.2 | 0.00 | 0.00 | 0.00 | 83 | 1031.7 |
| 20260504011448 | 15 | 136 | 3.2 | 3.2 | 0.00 | 0.00 | 0.00 | 83 | 1031.6 |
| 20260504010944 | 15 | 131 | 3.2 | 3.2 | 0.00 | 0.00 | 0.00 | 82 | 1031.6 |
| 20260504010440 | 15 | 129 | 3.2 | 3.2 | 0.00 | 0.00 | 0.00 | 82 | 1031.7 |
| 20260504005936 | 15 | 124 | 3.2 | 3.2 | 0.00 | 0.00 | 0.00 | 83 | 1031.8 |
| 20260504005433 | 15 | 125 | 3.2 | 3.2 | 0.00 | 0.00 | 0.00 | 85 | 1031.7 |
| 20260504004931 | 14 | 135 | 4.8 | 4.8 | 0.00 | 0.00 | 0.00 | 87 | 1031.9 |
| 20260504004428 | 13 | 163 | 1.6 | 3.2 | 0.00 | 0.00 | 0.00 | 90 | 1031.7 |
| 20260504003925 | 12 | 146 | 4.8 | 4.8 | 0.00 | 0.00 | 0.00 | 93 | 1031.9 |
| 20260504003421 | 12 | 136 | 3.2 | 3.2 | 0.00 | 0.00 | 0.00 | 93 | 1031.9 |
| 20260504002918 | 12 | 121 | 4.8 | 4.8 | 0.00 | 0.00 | 0.00 | 92 | 1032.2 |
| 20260504002415 | 12 | 106 | 3.2 | 3.2 | 0.00 | 0.00 | 0.00 | 92 | 1031.8 |
| 20260504001913 | 12 | 102 | 3.2 | 3.2 | 0.00 | 0.00 | 0.00 | 90 | 1031.8 |
| 20260504001410 | 13 | 93 | 1.6 | 1.6 | 0.00 | 0.00 | 0.00 | 88 | 1032.3 |
| 20260504000906 | 15 | 94 | 0.0 | 1.6 | 0.00 | 0.00 | 0.00 | 85 | 1032.0 |
| 20260504000404 | 15 | 110 | 1.6 | 1.6 | 0.00 | 0.00 | 0.00 | 84 | 1032.0 |
| 20260503235901 | 15 | 111 | 3.2 | 3.2 | 0.00 | 0.00 | 0.00 | 83 | 1032.2 |
| 20260503235359 | 15 | 125 | 3.2 | 3.2 | 0.00 | 0.00 | 0.00 | 83 | 1032.3 |
| 20260503234856 | 15 | 129 | 3.2 | 3.2 | 0.00 | 0.00 | 0.00 | 84 | 1032.3 |
| 20260503234354 | 15 | 129 | 3.2 | 3.2 | 0.00 | 0.00 | 0.00 | 85 | 1032.4 |
| 20260503233851 | 14 | 122 | 3.2 | 3.2 | 0.00 | 0.00 | 0.00 | 88 | 1032.4 |
| 20260503233347 | 13 | 141 | 4.8 | 4.8 | 0.00 | 0.00 | 0.00 | 91 | 1032.3 |
| 20260503232844 | 12 | 117 | 3.2 | 3.2 | 0.00 | 0.00 | 0.00 | 91 | 1032.3 |
| 20260503232341 | 13 | 97 | 1.6 | 1.6 | 0.00 | 0.00 | 0.00 | 90 | 1032.5 |
| 20260503231839 | 13 | 106 | 1.6 | 1.6 | 0.00 | 0.00 | 0.00 | 89 | 1032.5 |
| 20260503231336 | 13 | 102 | 1.6 | 1.6 | 0.00 | 0.00 | 0.00 | 88 | 1032.6 |
| 20260503230832 | 13 | 121 | 3.2 | 3.2 | 0.00 | 0.00 | 0.00 | 90 | 1032.5 |
| 20260503230329 | 13 | 125 | 3.2 | 3.2 | 0.00 | 0.00 | 0.00 | 91 | 1032.4 |
| 20260503225826 | 13 | 133 | 3.2 | 3.2 | 0.00 | 0.00 | 0.00 | 89 | 1032.6 |
| 20260503225322 | 13 | 117 | 3.2 | 3.2 | 0.00 | 0.00 | 0.00 | 87 | 1032.7 |
| 20260503224819 | 15 | 122 | 1.6 | 3.2 | 0.00 | 0.00 | 0.00 | 85 | 1032.5 |
| 20260503224316 | 15 | 123 | 3.2 | 3.2 | 0.00 | 0.00 | 0.00 | 83 | 1032.6 |
| 20260503223814 | 15 | 128 | 3.2 | 3.2 | 0.00 | 0.00 | 0.00 | 81 | 1032.6 |
| 20260503223311 | 15 | 129 | 3.2 | 3.2 | 0.00 | 0.00 | 0.00 | 82 | 1032.5 |
| 20260503222807 | 15 | 133 | 3.2 | 3.2 | 0.00 | 0.00 | 0.00 | 83 | 1032.7 |
| 20260503222306 | 15 | 149 | 3.2 | 3.2 | 0.00 | 0.00 | 0.00 | 85 | 1032.7 |
| 20260503221803 | 14 | 128 | 4.8 | 4.8 | 0.00 | 0.00 | 0.00 | 88 | 1032.7 |
| 20260503221301 | 13 | 129 | 1.6 | 1.6 | 0.00 | 0.00 | 0.00 | 91 | 1032.9 |
| 20260503220757 | 13 | 117 | 3.2 | 3.2 | 0.00 | 0.00 | 0.00 | 90 | 1032.9 |
| 20260503220254 | 13 | 94 | 1.6 | 1.6 | 0.00 | 0.00 | 0.00 | 90 | 1032.9 |
| 20260503215751 | 13 | 117 | 1.6 | 3.2 | 0.00 | 0.00 | 0.00 | 89 | 1032.9 |
| 20260503215248 | 14 | 96 | 1.6 | 1.6 | 0.00 | 0.00 | 0.00 | 87 | 1033.1 |